This is the latest recevied weather packets stored in our database for station/object KC8SWY-15. If no packets are shown the sender has not sent any weather packets the latest 1 day(s).
| Time | Temp. | Humidity | Pressure | Rain* | Wind** | Luminosity | Snow |
|---|---|---|---|---|---|---|---|
| 1778076265 | 8.89° C | 47% | 1014.1 hPa | 0 mm | - | - | - |
| 1778075965 | 8.89° C | 47% | 1014 hPa | 0 mm | - | - | - |
| 1778075665 | 8.89° C | 48% | 1014 hPa | 0 mm | - | - | - |
| 1778075365 | 8.89° C | 49% | 1013.9 hPa | 0 mm | - | - | - |
| 1778075065 | 8.33° C | 51% | 1014 hPa | 0 mm | - | - | - |
| 1778074765 | 8.33° C | 51% | 1013.9 hPa | 0 mm | - | - | - |
| 1778074165 | 8.33° C | 58% | 1013.7 hPa | 0 mm | - | - | - |
| 1778073865 | 7.78° C | 54% | 1013.6 hPa | 0 mm | - | - | - |
| 1778073565 | 7.78° C | 58% | 1013.6 hPa | 0 mm | - | - | - |
| 1778073265 | 7.78° C | 58% | 1013.6 hPa | 0 mm | - | - | - |
| 1778072965 | 7.78° C | 61% | 1013.6 hPa | 0 mm | - | - | - |
| 1778072665 | 7.22° C | 62% | 1013.5 hPa | 0 mm | - | - | - |
| 1778072065 | 7.22° C | 64% | 1013.6 hPa | 0 mm | - | - | - |
| 1778071765 | 6.67° C | 67% | 1013.6 hPa | 0 mm | - | - | - |
| 1778071465 | 6.67° C | 67% | 1013.6 hPa | 0 mm | - | - | - |
| 1778070565 | 6.11° C | 76% | 1013.7 hPa | 0 mm | - | - | - |
| 1778070265 | 5.56° C | 80% | 1013.7 hPa | 0 mm | - | - | - |
| 1778069965 | 5.56° C | 84% | 1013.6 hPa | 0 mm | - | - | - |
| 1778069665 | 5° C | 87% | 1013.6 hPa | 0 mm | - | - | - |
| 1778069065 | 4.44° C | 90% | 1013.3 hPa | 0 mm | - | - | - |
| 1778068465 | 3.89° C | 90% | 1013.2 hPa | 0 mm | - | - | - |
| 1778068165 | 3.33° C | 92% | 1013.1 hPa | 0 mm | - | - | - |
| 1778067865 | 2.78° C | 93% | 1013 hPa | 0 mm | - | - | - |
| 1778067565 | 2.22° C | 94% | 1012.9 hPa | 0 mm | - | - | - |
| 1778067024 | 1.11° C | 93% | 1012.7 hPa | 0 mm | - | - | - |
* Rain latest hour (hover to see other rain measurements)
** Current wind speed in m/s (hover to see current wind gust speed)